User: anonymous   Login
Location: Ferchesar
(52.6477°N, 12.4298°E)
Time: 08:53:51
(UTC+01:00)
Language:

Transit 2A Rocket - Orbit

View from above orbital plane
View from above orbital plane
View from above satellite
View from above satellite

Ground track
Ground track

The orbit data is extracted from the following two-line orbital elements,

1 00047U 60007C   22333.56152244  .00000547  00000-0  14590-3 0  9994
2 00047  66.6656 281.1425 0225759   6.4228 353.9683 14.42492016263756
Epoch (UTC): 29 November 2022 13:28:35
Eccentricity: 0.0225759
inclination: 66.6656°
perigee height: 589 km
apogee height: 911 km
right ascension of ascending node: 281.1425°
argument of perigee: 6.4228°
revolutions per day: 14.42492016
mean anomaly at epoch: 353.9683°
orbit number at epoch: 26375

The dashed part of the orbit path shows where the satellite is in the earth's shadow,  

DLR